This demonstration page uses our WeatherBlox Daily Observations layout. Learn more.

Left ArrowRight Arrow

Hourly Observations for November 7, 2020

Temp ( °F °C ) Dew Point ( °F °C ) Humidity (%) Winds ( mph kmh ) Pressure ( in mb ) Visibility ( mi km ) Precip ( " mm )
12:53 am 00:53 Clear 37 2.8 35 1.7 93 93 Calm 30.27 1025 8 13 0.00 0.00
1:53 am 01:53 Clear with Mist and Fog 35 1.7 34 1.1 96 96 Calm 30.27 1025 4 6 0.00 0.00
2:53 am 02:53 Clear with Mist and Fog 35 1.7 33 0.6 93 93 Calm 30.28 1025 6 10 0.00 0.00
3:53 am 03:53 Clear with Mist and Fog 34 1.1 33 0.6 97 97 Calm 30.29 1026 3 5 0.00 0.00
4:53 am 04:53 Clear with Mist and Fog 33 0.6 32 0 96 96 Calm 30.29 1026 5 8 0.00 0.00
5:53 am 05:53 Clear 33 0.6 31 -0.6 92 92 Calm 30.30 1026 8 13 0.00 0.00
6:53 am 06:53 Clear with Mist and Fog 32 0 30 -1.1 92 92 Calm 30.32 1027 6 10 0.00 0.00
7:53 am 07:53 Sunny with Mist and Fog 34 1.1 33 0.6 97 97 Calm 30.34 1028 3 5 0.00 0.00
8:53 am 08:53 Sunny 45 7.2 41 5 86 86 Calm 30.35 1028 7 11 0.00 0.00
9:53 am 09:53 Sunny 53 11.7 45 7.2 74 74 Calm 30.35 1028 8 13 0.00 0.00
10:53 am 10:53 Sunny 61 16.1 48 8.9 63 63 Calm 30.34 1027 10 16 0.00 0.00
11:53 am 11:53 Sunny 67 19.4 47 8.3 49 49 Calm 30.31 1026 10 16 0.00 0.00
12:53 pm 12:53 Sunny 72 22.2 46 7.8 40 40 Calm 30.27 1025 10 16 0.00 0.00
1:53 pm 13:53 Sunny 73 22.8 46 7.8 38 38 E 5 7 30.25 1025 10 16 0.00 0.00
2:53 pm 14:53 Sunny 75 23.9 45 7.2 34 34 VRB 3 6 30.24 1024 10 16 0.00 0.00
3:53 pm 15:53 Sunny 73 22.8 44 6.7 35 35 VRB 3 6 30.24 1024 10 16 0.00 0.00
4:53 pm 16:53 Sunny 70 21.1 44 6.7 39 39 Calm 30.24 1024 10 16 0.00 0.00
5:53 pm 17:53 Clear 57 13.9 44 6.7 62 62 Calm 30.25 1024 10 16 0.00 0.00
6:53 pm 18:53 Clear 50 10 42 5.6 74 74 Calm 30.26 1025 10 16 0.00 0.00
7:53 pm 19:53 Clear 47 8.3 41 5 80 80 Calm 30.26 1025 10 16 0.00 0.00
8:53 pm 20:53 Clear 44 6.7 40 4.4 85 85 Calm 30.26 1025 10 16 0.00 0.00
9:53 pm 21:53 Clear 43 6.1 40 4.4 89 89 Calm 30.27 1025 10 16 0.00 0.00
10:53 pm 22:53 Clear 42 5.6 39 3.9 89 89 Calm 30.27 1025 10 16 0.00 0.00
11:53 pm 23:53 Clear 41 5 39 3.9 93 93 Calm 30.26 1025 9 14 0.00 0.00

Powered by AerisWeather